Wind_Gust
4 5 3 4 5 5 6 6 4 5 4 6 6 7 7 7 7 6 5 6 6 8 6 7 7 8 8 7 8 9 9 9 9 10 9 9 10 11 16 14 12 12 13 13 13 12 9 12 11 11 10 11 9 10 10 9 8 10 11 10 9 8 8 8 7 7 8 9 8 9 10 10 11 11 10 12 14 14 14 15 16 16 15 16 17
5 4 4 5 5 5 5 6 7 6 5 7 6 6 8 8 7 7 7 7 7 8 6 8 9 7 7 7 8 10 11 12 11 11 10 9 9 10 16 13 12 11 11 15 14 14 12 12 13 11 10 10 9 10 9 10 11 10 9 8 7 7 6 7 7 7 7 7 7 9 9 9 10 11 10 12 14 14 14 15 16 16 15 14 15
4 4 4 5 5 5 6 5 6 6 6 7 6 7 7 8 8 8 9 8 8 7 7 8 9 10 7 7 8 8 10 11 11 10 10 11 9 9 12 16 13 12 10 11 13 14 12 14 12 11 10 10 9 9 11 11 11 10 8 6 6 6 6 6 7 6 6 8 9 9 8 9 10 10 10 10 13 14 15 14 15 15 14 14 15
3 4 5 6 7 7 7 6 8 6 6 7 7 7 8 10 8 8 9 7 8 7 6 7 9 10 7 8 6 9 9 10 11 11 11 10 10 10 10 11 13 12 11 9 14 12 14 14 14 13 11 9 12 14 13 11 9 8 8 7 6 6 7 8 7 7 8 9 9 9 9 9 11 10 10 10 12 13 14 15 15 15 15 15 16
5 5 6 6 8 9 9 8 7 6 6 6 8 7 9 11 11 9 9 8 9 9 6 6 8 9 7 8 6 8 8 10 11 11 12 11 11 10 9 9 8 12 12 10 12 12 14 15 16 14 12 9 13 13 12 11 9 8 7 8 8 8 8 8 8 8 8 8 8 8 9 10 11 11 10 10 11 13 14 13 14 14 15 16 16
5 5 5 6 8 9 11 12 8 7 5 8 9 10 10 10 12 11 11 8 10 9 7 8 8 6 6 5 3 5 9 11 11 13 12 11 10 9 9 8 9 10 10 14 14 12 12 9 14 14 12 10 11 12 10 9 8 9 10 9 9 10 9 8 9 9 8 9 10 10 11 12 12 13 11 11 12 13 14 14 14 14 14 14 16
6 5 5 5 7 9 9 10 9 7 8 6 8 8 9 12 10 11 11 10 10 9 8 7 6 4 5 4 4 6 7 8 8 10 13 12 10 9 9 9 9 10 11 11 11 14 11 10 11 12 13 12 11 13 12 10 10 10 10 10 11 10 9 8 9 10 10 11 12 12 13 13 13 13 13 13 14 14 14 14 14 13 13 13 14
6 7 8 7 8 9 10 8 8 8 8 8 7 9 8 9 10 10 10 12 10 11 8 7 5 5 6 6 3 5 8 9 11 10 13 13 13 12 12 11 10 10 10 11 10 10 11 12 10 10 12 15 12 14 13 11 11 12 12 11 11 11 11 10 10 12 12 13 12 13 14 14 14 15 15 14 13 14 15 14 15 14 14 14 14
7 7 8 8 8 9 10 9 8 10 11 10 10 8 9 10 9 10 9 12 9 10 7 6 9 13 8 6 6 6 9 11 12 14 14 12 12 11 11 12 11 11 11 11 10 9 12 15 12 11 8 13 15 12 12 12 12 12 13 13 13 12 11 12 12 14 14 14 14 15 16 15 15 16 16 15 15 15 15 15 14 15 14 14 14
6 6 7 8 9 11 11 11 9 9 9 9 12 9 8 8 9 8 11 11 10 11 11 8 11 10 9 9 12 9 10 11 11 13 14 14 14 15 15 12 12 12 11 10 11 11 11 13 14 10 9 7 9 12 12 12 13 13 14 13 13 13 13 14 15 14 15 15 15 16 16 15 16 17 17 16 16 16 16 16 15 16 15 15 15
6 6 8 9 9 10 10 9 8 9 9 8 11 10 9 8 9 9 9 12 14 11 12 9 9 11 13 11 10 11 12 10 12 14 15 16 15 14 11 16 12 10 9 10 10 11 11 10 10 8 10 11 10 12 13 12 14 14 14 14 14 14 15 15 16 15 16 16 17 16 15 15 16 16 16 16 16 16 16 16 16 17 16 16 15
7 8 9 9 9 8 8 6 7 8 10 12 12 12 12 11 9 8 8 9 10 10 10 13 11 11 13 11 12 12 10 11 13 15 16 14 17 14 15 11 11 11 11 11 10 10 11 10 9 9 8 11 12 10 11 12 10 15 15 15 16 15 15 16 16 16 17 18 18 17 15 16 15 15 15 15 15 17 17 15 16 16 16 16 15
6 7 8 9 9 7 7 8 9 10 11 11 11 12 11 11 10 10 11 11 11 10 11 12 11 9 9 11 10 9 12 12 14 14 14 13 13 16 13 13 13 13 15 10 10 11 11 11 10 9 10 9 12 11 10 11 9 13 15 17 16 16 17 16 17 18 17 18 18 17 15 14 14 14 14 15 15 16 16 16 16 16 17 17 17
6 7 7 7 7 7 9 11 11 11 12 11 11 11 11 11 10 12 10 13 12 11 11 12 11 15 11 10 12 8 11 13 14 14 14 14 15 17 16 16 17 17 14 13 13 12 12 12 11 10 10 10 10 9 10 11 11 13 15 16 16 17 17 18 18 18 18 18 18 17 14 15 14 14 13 14 15 15 16 17 18 18 18 17 17
8 8 8 7 8 9 9 9 11 11 12 13 11 11 11 11 10 13 13 10 13 10 12 15 15 11 11 8 11 11 10 12 13 15 15 15 14 16 17 16 19 16 13 13 13 15 13 11 12 11 11 11 10 10 10 9 11 10 13 16 17 17 18 19 19 20 20 19 17 16 14 15 15 15 15 15 15 15 16 18 18 19 18 19 18
5 6 6 7 7 9 8 7 10 10 12 13 12 13 11 10 11 12 12 14 12 11 13 15 15 11 10 17 11 9 10 17 18 17 16 16 16 20 17 19 18 15 12 16 16 15 14 12 13 12 12 12 11 11 10 10 14 12 12 12 14 16 19 20 21 22 21 18 16 17 15 15 15 16 16 15 14 15 16 17 18 18 19 19 17
7 5 5 7 6 7 7 7 8 9 10 12 12 12 12 11 12 13 12 15 16 15 12 14 16 16 14 10 9 11 15 8 11 16 12 15 18 18 17 17 16 16 16 17 14 14 14 16 13 12 13 12 12 12 11 11 13 12 12 14 14 16 19 21 23 24 23 21 19 19 17 16 15 15 14 12 13 15 16 17 19 19 19 19 17
7 8 8 7 9 8 7 7 8 9 8 10 10 11 12 12 11 13 14 14 17 17 18 14 19 20 19 18 13 18 9 7 8 19 9 15 12 15 16 16 15 15 16 16 18 16 16 18 14 14 13 13 13 12 12 12 12 12 11 13 14 13 15 17 21 24 25 25 22 21 18 17 15 16 15 15 17 17 17 18 19 19 19 18 17
10 9 9 9 8 8 8 8 9 9 10 10 11 12 13 14 12 13 15 15 17 17 19 17 14 18 19 19 20 16 12 13 18 8 11 9 14 15 16 15 15 15 16 16 16 15 15 17 17 15 14 13 13 13 13 13 12 11 11 12 15 14 16 14 15 23 25 26 25 23 21 19 18 17 17 16 17 17 19 19 20 20 18 17 16
11 11 11 11 12 11 9 9 10 10 12 11 12 12 13 13 13 13 15 18 17 17 20 18 20 18 15 17 17 17 15 16 13 17 14 10 10 9 9 13 14 16 16 17 16 16 15 15 17 17 14 14 13 14 14 14 14 15 15 15 16 15 16 15 11 15 17 23 27 25 23 21 21 20 19 17 17 17 19 19 19 18 18 16 15
13 13 13 13 14 14 13 13 14 14 13 13 12 13 14 15 14 13 13 15 19 19 19 19 18 20 16 17 18 19 17 15 14 13 21 17 15 14 14 11 14 15 16 17 17 16 16 17 18 18 16 14 14 14 14 14 15 14 12 16 17 17 16 15 12 15 15 17 21 24 23 23 23 23 21 19 18 17 17 18 16 16 16 16 17
14 13 13 14 13 13 14 14 15 14 14 13 14 14 13 15 15 15 14 15 15 17 19 19 19 19 19 16 17 18 17 17 17 19 14 14 18 17 16 16 18 20 17 18 20 19 18 16 16 15 16 16 15 15 15 16 15 15 14 18 19 19 17 15 13 16 17 15 16 21 23 23 24 23 23 22 21 19 18 18 18 18 18 18 18
14 14 10 13 14 14 15 14 14 14 14 13 14 14 15 15 16 15 15 17 17 16 17 17 18 18 19 20 20 21 23 23 19 19 18 17 17 17 13 19 23 17 19 18 18 18 19 17 18 19 17 17 16 16 16 16 13 15 17 19 20 20 19 16 15 16 17 16 16 21 22 23 23 25 25 24 22 21 21 20 19 19 19 20 21
12 13 14 15 15 14 13 12 13 13 14 13 15 15 15 14 14 14 14 15 16 17 16 17 16 17 18 17 17 17 19 21 19 20 21 20 18 19 17 15 14 17 8 14 14 16 17 18 17 17 18 18 18 17 16 16 16 19 19 19 20 21 19 17 17 16 18 17 14 18 22 25 24 25 26 25 24 23 23 22 21 20 20 21 22
15 15 15 15 15 14 15 15 14 13 14 14 14 14 15 14 12 12 13 13 14 14 16 16 17 17 15 14 17 17 20 20 18 19 19 18 18 21 18 15 19 18 12 13 21 17 16 20 19 18 16 17 17 16 16 17 17 18 19 16 22 20 19 19 17 17 17 16 14 14 16 19 20 23 26 26 25 24 23 20 17 16 16 18 20
14 15 15 16 14 13 13 13 13 13 14 14 14 14 14 14 13 14 14 14 13 14 16 17 17 17 15 16 15 17 18 16 17 17 18 18 19 20 16 17 17 16 13 15 14 16 17 18 18 18 18 19 19 19 18 19 18 17 22 18 21 22 20 19 19 19 18 17 15 13 14 14 15 17 21 23 22 18 18 15 15 16 16 14 18
13 14 14 14 13 13 13 14 14 14 14 15 14 13 13 13 14 13 13 13 14 15 14 15 17 16 16 16 16 15 15 17 17 18 17 19 20 18 18 16 16 17 15 14 13 20 17 17 18 18 20 19 18 19 19 18 17 18 20 22 19 22 20 20 19 19 19 18 16 15 14 17 14 14 15 17 18 17 18 17 17 17 15 15 16
10 12 12 13 15 15 14 15 15 15 15 15 15 16 16 15 13 12 14 12 14 14 14 13 16 17 17 16 15 17 17 17 17 18 17 17 17 15 17 17 18 19 16 17 16 18 14 17 17 19 19 20 19 18 18 19 20 18 21 21 18 18 21 20 20 19 19 19 18 16 15 17 19 14 16 13 18 18 19 18 19 18 16 15 16
11 12 13 13 15 15 15 15 16 16 15 16 16 16 17 15 14 13 14 12 12 12 13 14 15 16 15 16 16 16 15 15 16 19 18 16 17 16 16 20 18 19 20 21 19 22 15 20 19 21 20 18 20 19 19 20 18 23 19 19 19 18 20 21 21 21 20 20 19 17 15 18 18 17 17 16 19 20 21 20 18 17 16 16 18
14 13 14 16 16 17 16 16 16 16 17 16 17 17 17 16 14 12 12 12 12 12 12 13 14 13 14 15 13 14 14 14 15 15 16 18 17 17 18 18 17 20 18 20 20 19 15 14 17 18 18 20 20 19 19 20 17 23 19 21 19 20 20 23 21 21 20 20 20 18 17 17 19 18 18 17 19 21 22 21 20 18 17 22 21
15 16 16 16 16 16 16 16 17 18 17 17 17 18 18 17 15 14 12 12 11 10 10 11 13 13 12 13 12 13 13 14 14 14 15 16 17 17 17 18 18 19 18 15 21 16 13 17 18 12 18 19 20 19 19 19 19 24 21 21 21 17 20 22 23 21 20 20 19 18 18 18 19 18 18 22 19 20 22 22 19 20 25 23 17
15 15 14 15 16 16 16 17 17 17 17 17 18 18 18 16 17 16 14 13 13 12 12 11 12 12 12 13 12 11 11 12 13 13 14 14 15 15 15 16 17 18 16 17 18 16 15 15 16 14 14 18 18 18 19 19 19 23 22 22 24 18 20 19 22 22 20 19 20 20 22 19 19 20 19 17 19 22 25 22 21 23 21 19 15
16 16 17 17 17 17 17 18 17 18 18 18 18 18 18 17 17 15 13 13 13 13 11 11 12 13 13 13 14 13 11 12 12 11 12 15 16 16 15 15 15 14 15 15 16 13 11 7 10 13 11 13 17 18 19 19 17 20 17 17 18 18 21 19 19 20 22 21 20 20 20 19 18 21 19 20 20 22 23 23 21 21 22 19 18
15 16 17 16 17 18 16 18 17 17 17 16 16 17 17 17 17 16 15 15 16 16 15 17 17 16 13 13 15 14 14 14 14 13 11 10 12 12 12 14 13 13 12 16 14 13 13 8 6 6 13 16 18 15 19 21 20 18 20 19 18 19 19 17 17 21 24 22 21 21 20 19 18 19 19 21 20 19 22 23 22 21 21 18 19
15 15 16 17 17 17 17 18 18 17 17 17 15 15 16 16 17 16 16 17 18 19 20 20 20 19 20 19 19 17 14 13 12 12 11 11 10 12 13 12 12 12 11 10 12 14 12 11 9 12 13 16 18 17 18 19 19 22 23 20 21 19 18 19 20 16 18 20 22 20 20 19 18 18 20 21 21 20 21 22 22 21 20 19 19
16 14 16 16 16 17 17 19 19 19 20 18 18 20 16 17 18 18 18 18 18 19 20 20 20 20 20 20 21 21 19 15 11 11 11 10 11 11 7 6 9 9 9 10 11 11 11 12 13 17 14 13 16 14 14 15 19 17 19 17 15 17 15 16 15 15 18 22 21 21 19 19 19 19 20 21 21 20 22 23 22 21 19 19 20
15 15 17 15 17 17 19 18 19 20 19 18 20 22 20 20 20 19 20 21 21 21 20 20 19 21 20 20 19 19 19 18 18 16 15 14 11 8 12 9 9 10 10 12 12 11 10 12 10 10 9 15 16 15 14 16 14 15 15 15 18 19 17 14 14 12 15 21 22 21 20 19 19 19 20 20 20 20 22 22 22 22 20 20 21
16 15 16 16 17 17 19 18 18 19 19 18 20 20 21 22 22 22 21 21 21 21 21 20 21 21 20 20 21 21 21 22 20 18 18 15 13 10 8 6 7 8 10 12 11 10 12 11 11 10 6 9 9 12 15 16 16 17 18 15 16 16 17 16 16 14 16 17 14 18 16 18 20 21 20 20 21 22 21 21 23 23 21 21 22
17 18 16 17 17 17 18 18 20 20 20 19 22 21 21 22 21 21 22 21 21 19 20 21 21 20 20 20 21 21 21 21 21 20 17 16 15 13 8 8 6 7 8 8 9 10 8 8 6 7 9 7 9 10 8 12 12 15 18 15 15 18 17 18 17 14 15 15 13 15 16 16 16 17 19 21 22 22 21 22 22 22 22 22 22
18 18 17 17 16 16 18 17 19 18 20 20 23 22 20 21 20 22 21 21 20 20 19 21 22 21 22 22 23 23 22 20 19 19 18 17 14 14 15 11 9 6 8 8 7 7 7 7 9 7 8 8 5 9 12 13 13 10 15 19 19 19 18 18 18 19 18 17 16 14 10 13 15 19 19 22 23 23 23 21 23 22 24 23 22
17 17 16 17 18 19 18 18 18 19 26 21 19 24 19 21 21 21 21 23 23 22 21 20 20 21 21 22 22 24 28 26 24 22 21 19 17 17 16 14 12 9 4 4 6 7 7 8 7 6 9 9 9 13 14 16 22 24 19 13 15 16 17 16 13 14 19 21 17 14 16 16 15 15 13 14 19 22 23 21 18 22 20 19 20
15 17 17 18 20 20 19 21 20 22 24 19 25 29 25 21 20 20 21 22 22 21 23 25 25 24 19 21 23 32 26 25 22 20 21 21 22 19 16 16 15 13 11 6 6 6 6 7 8 9 12 14 14 14 16 15 8 9 13 14 15 15 15 13 12 15 16 17 18 18 16 14 16 16 15 17 15 19 17 20 18 19 19 21 20
17 16 16 19 20 18 19 21 21 22 23 23 24 22 24 23 19 21 20 21 21 24 25 25 28 28 25 21 22 25 25 23 24 20 18 19 19 21 24 25 24 22 16 16 16 10 6 8 8 9 12 13 14 13 14 12 13 17 18 17 15 17 20 21 20 12 13 20 20 16 15 13 15 17 15 13 14 14 13 18 16 22 22 21 21
16 15 19 18 19 20 20 20 21 21 20 22 22 22 22 23 19 20 19 21 23 23 24 26 24 22 22 26 25 23 24 30 25 20 18 17 19 20 21 24 25 25 22 21 18 19 17 13 11 11 11 13 13 12 11 11 13 11 13 16 19 20 21 18 17 17 17 17 19 17 13 13 14 13 12 8 9 10 15 15 18 20 22 22 20
13 19 18 18 19 18 19 21 21 22 19 24 23 22 21 21 20 18 20 20 22 22 24 23 23 24 24 25 26 29 28 32 26 25 22 20 15 20 20 20 24 27 27 28 25 22 17 17 16 18 20 17 14 12 8 11 12 14 11 13 13 15 16 18 14 12 15 17 19 16 13 12 12 12 12 8 8 9 9 10 17 19 19 20 19
17 17 17 19 18 19 19 18 19 20 22 20 23 22 21 20 18 16 18 19 20 22 23 23 23 24 23 24 25 27 26 26 26 25 22 21 21 22 24 25 24 25 24 26 24 25 21 18 17 18 17 17 17 19 20 15 16 17 17 15 12 13 16 17 10 14 15 19 21 18 11 7 11 16 11 8 8 9 8 10 15 16 17 18 18
17 17 17 18 17 17 17 16 18 20 24 25 24 24 22 20 17 14 18 18 20 20 22 23 24 24 23 23 23 25 27 30 29 29 25 23 23 24 23 24 25 24 25 26 23 19 20 19 19 17 19 19 19 21 20 19 17 13 17 19 18 14 15 13 13 13 16 11 13 19 16 9 7 11 9 8 9 11 9 9 13 15 16 17 18
14 14 16 17 18 17 16 17 19 22 23 26 25 25 23 19 16 17 18 19 20 21 23 22 24 24 24 25 24 25 26 27 27 30 27 23 25 25 26 23 22 23 24 18 21 22 21 18 19 17 15 19 19 23 24 23 20 19 11 13 13 14 15 14 12 11 14 10 13 15 15 9 5 14 10 9 9 13 12 11 9 13 14 15 15
16 18 16 16 15 17 19 19 20 20 21 25 25 25 24 21 15 18 18 19 20 22 22 20 21 25 27 26 23 25 25 27 26 29 26 23 25 23 23 22 21 22 25 23 19 20 20 22 24 24 24 25 24 27 28 29 28 21 17 15 13 14 14 13 10 12 13 12 9 13 15 14 11 12 14 10 10 11 12 11 12 11 15 17 18
17 14 11 15 16 16 18 19 18 17 19 24 26 25 24 24 17 18 17 19 19 19 19 19 19 21 25 31 28 23 26 22 26 29 27 25 27 25 23 22 25 25 26 23 20 20 17 20 23 23 25 24 24 24 28 28 29 23 22 21 21 16 16 15 17 12 10 11 10 14 19 14 15 16 19 12 13 11 11 10 13 15 14 14 18
13 10 13 15 16 16 15 15 19 19 17 19 24 23 25 23 20 16 17 17 20 19 17 18 17 18 20 20 28 25 23 23 28 27 27 24 25 23 21 23 26 25 21 20 22 22 24 25 25 24 26 23 24 24 26 28 27 23 24 21 23 22 15 11 13 13 11 12 13 16 20 16 19 14 21 18 11 8 9 9 10 12 13 13 17
Wind_Speed
2 2 1 2 2 3 3 4 2 3 1 3 3 4 5 4 4 4 3 3 3 4 3 2 3 4 4 4 4 4 4 4 5 5 5 5 5 7 11 11 10 10 9 9 9 9 7 8 7 8 7 7 6 5 5 4 4 3 4 4 5 4 3 4 3 4 5 6 6 7 7 7 7 7 8 10 11 11 11 11 11 11 12 12 12
2 1 1 2 2 2 2 3 4 2 2 4 3 4 5 5 4 4 4 4 3 3 3 4 3 2 4 4 5 5 5 6 6 5 5 5 5 5 11 11 10 9 8 10 11 10 7 7 10 7 7 7 6 7 5 5 5 5 5 4 3 3 2 2 2 3 4 4 5 6 7 6 7 7 8 10 11 11 11 11 10 10 11 11 11
2 2 2 2 2 2 3 3 3 3 2 3 3 3 4 4 4 5 5 5 4 3 3 4 4 5 2 3 4 4 5 4 4 5 5 5 5 5 6 13 10 9 8 9 8 11 8 8 9 8 7 7 6 5 6 7 7 8 6 3 2 2 2 2 2 3 3 4 6 6 6 6 6 7 7 8 10 11 11 11 11 10 11 11 12
1 2 2 3 4 3 3 3 4 3 1 2 2 2 5 5 3 3 4 4 4 4 4 4 5 4 4 4 4 4 5 4 5 5 5 5 6 5 5 5 9 10 9 6 9 9 11 10 10 10 8 6 6 7 8 7 6 5 5 4 3 2 2 3 3 3 3 5 6 6 6 7 7 6 8 8 10 10 11 12 11 10 10 11 13
2 3 4 3 4 5 5 4 3 2 2 3 3 4 5 5 5 3 4 4 5 5 3 4 5 5 4 5 3 4 3 3 4 3 3 3 4 5 5 5 4 8 10 8 8 10 11 12 12 10 9 6 6 9 9 8 6 6 5 4 3 3 4 4 4 3 4 5 5 5 6 7 7 8 7 7 9 11 11 11 11 10 9 11 12
3 3 2 3 4 5 6 6 5 3 2 3 4 4 5 6 5 4 5 5 6 4 4 4 4 3 3 3 1 2 3 3 3 4 5 5 3 3 3 4 4 5 5 9 8 10 10 8 12 11 10 7 7 9 7 6 6 7 5 5 3 5 5 5 4 5 4 4 5 6 7 8 8 8 8 9 10 11 11 11 11 10 10 9 10
2 3 4 2 4 5 5 5 5 4 3 3 3 3 4 6 5 6 6 5 5 5 5 4 3 2 2 1 1 2 3 4 5 6 6 4 5 5 4 4 4 5 5 5 6 11 9 8 8 8 11 8 7 9 8 7 6 6 5 6 6 6 6 5 6 5 5 5 6 7 8 9 9 9 10 10 11 11 12 11 11 10 10 10 9
3 3 4 3 4 6 5 5 5 4 5 4 4 5 4 5 6 6 6 6 5 6 4 4 2 0 2 2 0 2 3 4 5 6 5 5 5 5 6 6 5 5 5 5 5 5 9 8 8 7 10 11 9 10 10 8 7 6 6 6 7 7 6 5 5 6 6 8 8 8 9 9 10 10 10 11 10 11 12 12 12 11 11 11 10
5 4 4 4 4 5 5 5 5 6 6 6 5 4 5 6 5 6 6 6 5 6 4 3 3 3 4 3 3 4 4 4 5 5 4 6 7 6 5 5 5 7 5 5 4 4 6 10 9 9 7 11 12 10 9 9 9 8 8 7 7 7 7 6 7 7 8 8 9 9 9 10 10 11 11 11 12 12 12 12 12 12 11 12 11
4 4 4 4 4 5 5 4 4 4 5 4 6 5 5 5 5 4 6 6 6 6 6 3 4 5 4 4 5 5 5 5 5 5 6 6 7 7 7 6 5 6 6 5 5 5 4 8 11 8 7 6 7 10 8 8 8 8 8 10 9 8 8 8 9 9 9 9 10 10 9 9 11 12 12 12 13 13 12 13 12 13 12 12 12
4 4 4 4 4 4 4 4 4 5 5 5 5 6 6 5 5 5 5 6 6 6 6 5 5 5 6 6 6 6 6 6 6 6 7 8 8 8 5 7 5 5 5 5 5 5 6 5 5 5 5 9 8 10 10 9 9 9 9 9 9 10 9 10 10 11 10 10 11 11 10 10 11 12 12 12 12 12 13 13 13 13 13 13 12
4 4 4 4 4 4 4 4 4 5 6 6 6 6 7 7 6 5 5 5 6 6 5 5 6 7 7 5 5 5 7 6 8 8 7 7 7 5 6 6 6 5 5 6 5 5 5 6 5 5 5 8 10 9 9 8 8 10 10 10 11 11 10 10 11 11 11 11 12 12 11 12 12 12 12 12 12 13 13 12 12 13 13 13 12
4 3 4 4 4 4 4 5 5 6 6 6 6 7 7 7 6 6 7 7 6 6 6 5 5 4 5 7 6 5 7 7 9 8 8 6 5 6 6 7 6 8 8 5 6 6 5 6 6 5 5 5 7 10 9 8 8 11 11 11 11 11 12 12 12 13 12 13 13 13 12 11 11 11 11 11 11 12 12 13 13 13 13 13 13
2 2 2 3 3 4 5 6 6 6 7 7 7 6 7 7 6 7 6 7 5 5 5 4 4 5 4 4 6 4 6 7 8 8 8 7 8 8 8 8 8 9 8 6 7 6 6 6 6 5 5 5 5 5 5 7 7 9 12 12 12 13 13 13 13 13 13 14 13 13 11 11 10 11 10 11 11 11 12 13 14 14 14 13 13
2 3 4 4 4 5 5 5 6 6 7 7 7 7 6 7 7 6 7 5 7 6 7 8 6 5 6 4 3 3 4 5 7 9 9 9 7 8 8 9 10 9 7 7 7 8 7 6 6 6 6 6 5 5 5 4 7 9 10 13 13 14 13 14 15 14 15 15 14 13 11 12 12 12 11 11 11 11 13 14 14 15 14 15 15
3 3 3 4 4 4 5 4 5 6 7 7 7 7 7 6 7 8 7 7 5 6 7 9 7 3 3 5 3 3 4 7 8 8 9 10 10 11 9 10 10 9 6 8 9 8 7 5 7 7 7 6 6 6 6 5 9 10 10 8 12 13 14 15 16 16 16 15 13 13 11 12 12 12 11 10 10 11 12 14 14 15 15 15 14
1 2 2 3 4 4 4 5 5 5 5 6 7 7 7 7 7 7 7 7 7 6 6 8 10 9 6 1 1 3 5 1 6 7 6 8 11 11 10 10 9 9 9 9 8 7 8 9 6 7 7 7 7 6 6 6 7 7 8 10 11 12 15 16 18 16 18 17 15 15 14 13 12 11 11 10 10 11 13 14 15 15 16 15 14
4 4 2 2 3 3 3 4 5 5 5 5 5 6 7 8 7 6 7 8 7 8 8 7 10 11 11 9 7 6 1 1 3 5 2 8 7 9 10 10 9 9 9 9 10 8 8 8 8 7 7 7 6 6 6 7 6 6 6 6 11 11 13 15 16 17 19 20 17 17 15 13 12 12 10 11 13 13 14 15 15 15 15 14 13
5 4 4 4 4 5 5 5 5 5 5 6 5 6 7 7 6 7 8 8 8 9 8 7 7 8 9 11 10 9 6 4 6 1 5 3 7 8 9 9 8 9 9 10 9 8 8 8 10 8 7 6 6 6 6 6 7 8 9 8 12 12 14 12 9 16 19 19 19 17 16 15 14 13 12 12 13 14 15 15 16 16 15 13 12
6 7 7 7 7 6 6 5 6 6 6 6 6 6 7 7 7 8 8 8 7 8 10 8 7 5 7 9 8 9 9 9 8 6 5 3 4 5 5 7 8 9 9 10 10 9 9 8 9 9 6 7 6 6 6 7 7 7 8 13 13 13 14 13 8 13 15 18 20 19 18 17 16 15 14 14 13 14 15 15 16 15 14 13 12
8 8 8 8 9 8 8 8 8 8 7 7 7 7 9 9 9 7 8 8 7 8 8 8 8 9 8 7 9 7 7 8 8 7 8 8 7 6 6 6 8 8 9 10 9 9 9 9 9 9 7 7 7 6 7 7 6 7 9 14 15 14 13 12 10 11 13 15 17 19 18 18 18 18 16 15 14 13 14 14 13 12 13 12 14
8 8 8 9 8 8 8 9 9 8 7 7 8 8 8 8 8 8 9 9 7 8 9 8 8 8 8 8 7 7 5 5 8 9 7 8 9 7 8 8 9 9 9 9 12 11 10 9 9 9 8 7 6 7 7 8 7 6 9 15 15 15 14 13 11 12 14 12 12 17 18 18 19 18 18 17 16 15 13 14 13 13 13 13 14
8 8 6 8 7 8 8 8 7 7 7 7 7 7 7 8 8 9 9 10 8 9 8 9 8 8 8 7 9 7 8 10 10 10 9 7 7 8 5 8 11 9 9 11 9 11 10 10 11 10 9 9 8 7 8 7 10 10 14 15 16 16 15 13 12 13 14 14 9 16 17 17 18 19 19 18 17 16 16 15 14 14 14 15 16
7 7 8 8 8 8 8 7 7 7 7 7 7 7 7 7 7 7 6 7 7 8 8 8 8 7 8 7 7 7 7 6 3 5 8 9 8 9 8 5 6 7 2 7 8 9 10 9 9 9 10 9 9 8 7 7 9 15 13 16 16 17 16 14 13 13 15 14 11 14 17 19 18 19 20 19 18 18 18 17 16 15 15 16 17
7 7 7 9 8 8 8 7 7 7 8 8 8 8 7 7 7 7 7 7 7 8 8 7 8 8 8 7 7 8 8 7 6 6 7 8 9 10 8 7 8 6 5 6 7 9 8 10 10 10 9 8 9 8 9 8 8 13 16 12 18 16 16 16 15 15 15 14 13 12 13 15 14 18 20 20 20 18 18 16 14 13 13 14 16
7 8 8 8 7 8 7 7 7 7 8 8 8 8 8 8 8 8 8 7 7 8 8 8 8 9 8 8 8 8 8 7 7 7 8 7 7 9 7 6 8 8 4 6 7 7 7 9 9 8 8 10 9 9 8 9 8 14 17 11 15 17 17 16 16 16 15 15 13 12 11 11 12 13 16 19 18 15 15 13 13 13 13 12 15
6 7 7 7 8 7 7 7 8 8 9 9 8 8 8 7 6 7 7 6 6 7 7 8 8 8 8 8 8 8 8 7 7 9 9 10 10 9 8 8 6 7 7 6 7 12 9 8 9 10 11 10 10 10 9 8 11 14 16 11 9 19 16 17 16 16 16 16 14 13 11 12 11 10 12 15 15 14 14 12 14 14 13 10 12
5 6 7 7 8 9 8 9 9 9 9 9 9 9 10 9 7 7 8 6 7 7 6 7 8 8 9 8 8 8 7 8 8 8 8 8 9 8 8 9 8 6 6 7 7 8 9 8 9 11 11 11 10 10 11 12 9 14 15 9 8 10 17 17 17 16 16 16 16 14 12 13 15 11 13 11 15 15 14 14 15 15 13 12 12
6 7 7 8 8 7 8 8 9 8 9 9 9 9 10 9 8 8 8 7 6 7 6 6 7 8 8 9 9 8 8 7 8 8 8 8 8 8 8 9 7 7 7 7 8 9 8 10 9 10 12 10 10 10 10 10 12 14 11 11 9 8 15 18 17 17 16 17 16 15 13 15 16 13 15 13 16 16 16 15 15 14 13 12 14
7 6 7 8 7 8 8 8 9 9 9 9 9 9 10 9 8 7 7 7 6 5 5 5 7 7 8 8 7 7 7 7 7 7 8 8 8 9 9 9 8 9 8 8 7 8 6 8 6 6 10 11 11 10 10 10 13 15 11 11 10 10 16 18 17 17 17 17 17 15 15 15 15 14 14 14 17 18 18 17 16 15 14 17 17
7 8 7 7 8 8 8 8 9 9 9 8 8 8 9 9 9 8 7 7 6 5 6 6 6 6 8 8 7 7 7 7 7 7 8 8 9 9 9 9 9 11 9 7 8 4 6 8 8 5 8 11 11 11 10 10 12 15 11 11 11 13 16 16 18 17 17 17 16 15 14 15 16 16 15 15 15 16 18 18 15 15 20 18 14
8 7 7 8 9 9 8 8 9 9 10 9 9 9 8 8 8 8 8 8 8 7 7 6 6 7 7 8 7 6 6 6 7 7 7 7 7 7 8 8 9 10 9 8 10 8 3 5 6 8 7 8 10 9 10 10 11 17 11 12 13 15 12 8 18 18 17 16 16 15 17 15 16 16 16 12 13 15 15 16 17 19 18 16 12
7 7 8 9 9 9 8 9 9 9 9 10 8 8 7 8 8 8 8 8 8 7 6 7 7 8 8 7 8 8 7 7 6 6 6 8 9 8 7 7 7 7 8 8 7 7 1 1 3 5 6 7 8 11 11 9 8 10 11 9 10 10 11 9 8 17 18 17 17 17 17 16 15 16 16 16 16 18 19 18 17 17 18 16 14
7 8 9 8 8 9 8 10 10 9 9 9 9 7 8 9 10 8 9 9 10 10 9 11 10 9 8 9 9 9 8 7 8 7 6 6 5 5 6 7 7 6 6 5 6 5 4 0 2 2 4 7 7 9 10 11 10 9 10 10 9 11 10 9 8 9 20 18 18 17 17 16 15 16 16 18 17 16 18 19 18 18 17 14 15
7 7 8 8 9 10 10 10 11 9 10 9 8 8 9 9 9 10 10 10 11 11 12 12 12 11 12 11 11 10 8 7 7 7 7 7 6 6 4 2 4 4 5 6 4 4 5 3 3 3 4 5 8 7 10 10 10 10 11 11 11 9 10 11 11 8 15 17 18 17 17 16 15 15 17 18 17 17 17 18 18 18 17 15 15
7 7 8 9 9 10 10 11 11 10 10 10 11 11 10 10 10 11 11 11 11 11 11 11 12 11 11 11 12 12 11 9 7 6 6 6 6 6 4 3 3 4 4 5 6 5 4 4 3 5 4 4 5 5 7 8 8 8 10 9 8 9 9 7 8 8 12 17 17 17 16 16 16 16 17 18 17 17 18 19 18 17 16 16 16
8 7 8 8 10 10 9 10 11 11 11 10 11 11 11 12 11 11 12 12 12 12 11 11 12 10 10 11 10 11 11 10 10 9 8 9 7 4 4 2 2 2 3 5 6 4 4 6 4 3 3 4 5 6 7 7 6 7 9 7 9 9 8 7 7 6 10 16 17 17 16 16 16 16 17 17 17 17 18 19 18 18 17 17 17
7 7 8 8 9 10 10 10 10 11 10 10 10 11 12 12 12 12 11 11 12 12 12 12 11 10 9 11 11 12 12 13 12 10 10 9 8 7 5 2 2 1 2 2 2 3 4 5 3 2 2 4 4 5 6 8 6 6 5 5 6 7 8 7 6 5 7 9 7 9 12 14 16 16 17 17 17 18 18 18 19 19 18 18 18
7 8 9 9 9 9 10 10 11 11 12 11 10 10 11 11 11 12 13 12 11 10 11 12 12 11 11 11 12 13 12 12 13 12 10 9 9 8 5 4 2 3 4 4 3 4 4 2 2 3 4 3 2 3 4 7 6 8 8 5 4 5 7 9 8 6 6 7 9 13 12 12 14 13 16 17 18 18 18 18 18 18 18 18 18
8 9 9 10 9 9 10 9 10 9 10 11 12 11 10 11 11 13 12 12 11 11 11 12 12 12 13 13 12 12 13 11 11 11 11 9 7 8 8 6 5 2 2 2 2 1 2 3 3 3 3 3 2 0 2 4 4 3 7 9 9 9 8 8 9 10 9 8 8 8 7 9 11 14 16 18 19 19 19 17 19 18 19 19 18
8 9 9 10 10 11 11 10 10 10 10 10 10 11 10 11 9 9 8 9 9 9 9 10 10 11 12 11 11 13 16 19 18 16 15 14 9 9 8 7 7 5 2 0 1 2 2 4 4 3 4 4 3 4 4 5 8 7 5 6 7 7 8 8 6 6 9 12 7 7 8 8 8 9 7 8 12 16 16 18 15 19 17 15 17
8 9 10 10 11 11 10 12 11 11 10 8 15 19 17 10 10 9 10 9 10 10 10 9 11 12 11 10 12 24 19 19 17 16 17 17 17 13 9 9 8 7 6 4 2 2 2 3 3 2 3 4 4 5 5 3 2 3 7 7 8 7 7 5 5 4 8 8 8 10 9 7 9 9 9 9 8 12 9 11 10 12 15 18 17
10 9 9 11 10 9 11 11 12 10 10 10 19 17 18 19 11 11 10 11 12 12 12 12 12 14 12 11 10 15 17 17 15 16 15 16 15 16 19 19 18 13 9 9 9 6 2 3 2 2 3 4 5 4 5 4 5 6 8 8 7 7 8 10 9 2 6 10 9 9 9 8 8 10 9 8 8 8 7 10 14 18 18 18 17
9 9 11 11 11 11 10 12 12 11 10 15 18 18 18 19 16 10 10 10 11 12 12 12 11 11 12 12 11 9 12 17 13 12 13 14 14 15 16 18 20 20 17 13 10 10 10 7 7 6 6 5 4 3 4 1 3 3 5 7 8 10 9 8 6 7 5 8 8 8 6 4 7 7 7 4 5 6 8 11 15 17 18 18 17
8 11 11 11 11 10 11 12 12 12 10 17 17 18 17 17 16 12 9 10 11 12 12 12 12 12 11 11 12 12 11 22 15 13 12 12 13 15 15 15 18 21 20 21 20 14 9 9 9 10 11 9 8 6 3 2 1 4 3 5 6 7 8 9 7 4 7 8 8 7 7 5 5 7 6 3 2 4 5 9 15 16 16 16 16
10 10 10 11 10 11 10 10 11 11 11 14 18 17 16 16 15 12 9 10 10 11 12 12 11 12 12 11 12 12 12 13 13 13 11 11 12 13 13 14 13 16 18 20 19 20 16 10 9 10 9 9 8 10 12 8 4 5 5 6 5 5 7 7 5 6 7 7 7 7 4 2 5 8 5 2 2 4 3 7 13 13 15 15 15
9 9 9 10 10 10 10 9 9 11 11 19 18 18 16 15 14 11 9 9 9 10 11 12 12 12 12 10 11 14 15 16 14 15 12 12 12 12 13 14 14 14 15 15 12 10 11 10 10 10 11 11 10 11 12 10 10 7 5 5 5 6 6 6 6 7 7 6 6 8 6 3 3 6 4 4 4 4 3 5 11 13 14 14 15
7 8 8 9 10 10 10 10 11 12 11 19 18 18 17 14 13 8 8 9 9 9 10 11 12 11 11 12 10 12 13 12 17 22 17 11 13 13 14 13 12 13 14 13 16 16 13 10 9 9 9 11 13 13 13 12 11 11 6 3 3 4 4 5 6 5 6 5 5 7 5 3 1 6 3 4 5 5 5 4 6 11 12 12 12
9 9 9 8 7 9 10 10 11 10 11 16 18 18 17 16 11 8 8 8 9 9 10 9 9 10 12 13 10 10 12 12 18 21 20 16 12 13 12 12 11 11 12 12 15 17 16 18 19 20 19 19 19 21 22 22 16 12 9 5 2 2 6 5 3 5 4 4 2 6 6 5 2 4 6 5 4 4 5 5 5 9 12 13 14
9 8 6 8 9 9 10 11 10 10 10 15 19 18 17 16 11 8 7 7 9 10 9 9 8 8 13 22 18 11 12 11 19 21 21 16 15 14 12 10 13 12 13 12 10 11 15 16 19 19 20 19 18 19 22 22 22 17 12 11 12 7 2 4 4 4 4 4 3 7 9 6 5 7 8 4 6 5 5 5 7 9 12 12 15
7 6 6 8 9 9 9 9 13 12 10 12 17 17 18 16 11 8 8 7 10 9 8 9 8 8 9 11 19 16 13 15 21 20 21 16 11 11 10 12 13 13 11 11 12 13 13 14 14 14 14 16 14 14 16 22 22 18 13 12 11 12 8 0 5 5 3 0 2 5 8 7 8 5 7 5 4 3 4 5 5 6 7 7 9
Wind_Direction
242 238 218 274 297 294 291 271 243 255 205 257 244 277 289 284 281 286 271 268 264 280 286 241 167 187 194 205 203 197 197 200 203 198 197 195 209 225 223 208 213 226 213 194 199 185 204 187 186 183 178 190 197 209 201 187 185 157 172 150 135 127 127 120 128 123 117 109 108 102 96 98 95 96 90 97 91 87 85 80 74 70 66 65 67
245 272 206 283 280 285 276 276 293 289 216 267 246 253 276 291 291 291 294 288 290 283 300 305 300 176 180 199 201 202 197 198 201 200 194 195 208 221 225 211 222 228 206 200 207 190 196 201 179 180 191 192 191 202 177 184 175 156 165 163 144 125 136 126 171 166 151 140 117 111 108 110 110 111 102 98 96 92 89 83 79 78 75 70 71
261 304 322 305 294 274 265 279 283 273 215 276 329 312 302 285 311 318 316 312 299 310 301 292 294 301 235 199 215 202 205 204 202 195 194 200 194 205 223 216 218 226 226 215 228 199 204 197 183 187 194 175 198 169 178 186 168 160 174 170 163 159 179 206 184 177 173 148 134 134 130 124 118 120 116 112 103 99 94 89 85 81 76 76 70
249 317 296 292 291 278 258 256 254 275 285 258 274 281 271 275 282 308 298 301 294 293 282 267 278 276 284 260 226 207 205 190 193 195 200 201 197 200 209 215 218 225 230 238 220 216 208 202 194 189 190 204 177 163 171 185 192 190 195 190 208 203 199 201 211 202 176 159 154 144 144 139 129 130 126 111 115 111 102 94 87 86 85 82 78
253 244 271 269 286 292 285 266 257 235 229 273 272 266 274 277 272 239 258 280 292 287 272 256 267 274 273 263 232 223 201 177 186 185 199 215 211 196 200 208 208 225 230 235 222 215 220 207 202 197 192 212 198 188 180 176 184 205 220 206 196 220 188 194 211 187 163 172 161 158 152 144 130 129 129 126 117 118 114 106 98 90 88 77 78
256 278 268 288 292 293 299 300 306 316 255 239 246 241 260 279 271 281 274 267 268 274 285 269 251 265 296 322 191 196 165 179 161 167 172 190 194 234 243 220 207 211 221 231 226 212 233 261 213 192 196 201 199 200 205 200 203 229 219 216 204 212 190 196 212 185 181 172 167 160 156 145 140 137 133 123 119 118 115 107 105 101 93 83 79
307 291 288 267 292 296 295 296 308 315 306 287 264 252 225 246 274 273 275 266 261 270 260 245 223 280 302 318 201 180 176 166 158 178 194 189 186 188 186 235 233 213 217 223 226 211 224 245 204 192 190 187 192 191 190 192 204 209 212 220 196 194 203 195 200 188 176 172 162 163 154 147 141 138 129 121 113 109 110 113 111 110 104 96 89
251 242 261 269 285 292 296 308 316 319 313 302 281 271 256 242 246 242 263 264 258 261 235 220 144 320 261 270 45 208 209 178 188 196 188 197 214 213 199 192 210 219 217 215 221 214 213 229 210 204 197 186 192 196 190 195 197 201 197 211 201 185 201 193 199 190 174 169 163 159 153 150 144 142 132 122 121 118 116 116 114 111 108 106 101
236 236 246 271 276 282 289 298 305 304 302 301 294 274 262 256 244 235 233 262 266 265 243 175 125 233 230 209 201 200 208 206 199 204 184 208 219 210 210 205 209 219 219 210 215 208 215 219 216 207 202 185 194 200 207 206 203 208 192 193 201 193 195 186 198 186 171 170 162 161 157 152 149 139 130 127 126 125 123 122 121 118 116 115 111
219 213 230 250 259 262 278 280 279 280 276 279 289 287 261 252 256 233 230 237 253 254 259 230 193 225 244 228 236 225 215 206 198 201 192 211 225 219 209 196 203 214 209 203 205 201 198 215 215 208 199 186 194 186 206 215 210 195 200 193 200 187 197 199 195 182 179 172 168 159 152 153 151 140 138 134 128 127 127 128 126 124 121 121 121
217 211 230 242 251 256 263 265 258 256 256 254 275 280 269 243 248 249 229 226 232 238 249 253 248 249 249 242 228 227 227 219 207 205 203 209 215 224 210 213 199 206 215 206 200 200 198 196 211 203 199 181 169 179 199 206 199 197 199 195 192 191 198 203 184 179 180 179 166 153 152 157 153 148 144 138 135 135 132 130 130 125 123 119 118
218 216 223 236 243 252 257 262 260 260 261 256 257 256 261 260 246 246 250 243 236 241 237 243 263 274 274 263 238 234 237 228 222 218 218 212 213 215 216 218 220 219 223 209 196 202 199 191 199 193 199 184 174 177 191 200 188 195 200 189 193 192 200 201 186 176 181 172 165 157 160 160 153 150 146 143 146 141 135 133 129 126 123 123 120
221 212 218 235 238 243 244 246 244 249 247 247 247 251 250 248 247 235 242 247 239 223 236 222 225 237 236 261 261 240 241 235 228 224 219 218 205 210 212 213 199 214 222 214 202 201 201 194 192 188 194 193 182 180 188 179 182 195 195 193 191 197 198 199 188 180 175 175 166 161 168 163 161 159 151 146 146 141 136 135 129 123 123 122 119
246 210 238 227 248 254 254 257 250 247 248 251 251 247 245 242 243 253 225 244 247 199 216 191 236 228 225 240 243 243 242 237 234 232 226 216 211 211 210 215 216 215 214 204 208 198 200 197 188 185 193 191 177 169 181 177 183 200 192 191 195 194 199 195 198 178 177 174 172 167 172 170 170 165 158 156 150 145 141 137 130 125 122 117 119
253 241 235 237 238 245 245 246 254 258 263 260 256 253 243 241 233 243 260 223 234 200 189 180 232 215 234 251 239 230 231 237 238 237 228 222 212 214 217 220 223 218 209 207 207 210 207 194 190 186 189 190 179 170 169 166 179 191 204 193 201 193 200 197 202 175 177 175 175 169 176 174 173 167 165 160 154 150 146 138 132 129 124 119 117
229 230 234 236 232 240 248 248 253 252 258 267 266 262 247 245 241 238 233 252 233 226 194 195 205 147 261 214 230 189 254 230 226 231 221 227 219 218 212 220 221 217 201 209 203 209 208 196 193 188 189 189 179 171 169 165 183 187 204 203 198 201 195 201 205 177 176 175 175 174 182 182 176 171 166 162 153 152 149 142 137 134 130 124 121
233 220 238 255 244 237 238 248 250 251 253 266 278 278 281 267 253 243 234 243 248 242 221 206 209 199 212 215 280 241 235 171 197 250 202 224 224 217 216 218 216 212 208 214 208 202 199 204 197 191 189 189 181 175 170 172 181 187 196 205 205 201 194 204 205 182 180 175 180 180 186 179 175 174 170 160 149 151 150 145 139 139 133 127 124
9 0 333 310 306 297 289 290 284 277 264 265 272 280 282 284 274 268 260 244 246 253 261 224 217 211 219 219 207 236 227 255 130 269 177 227 229 218 219 217 213 213 212 212 209 203 196 203 198 195 189 190 185 177 174 175 177 184 176 202 200 193 203 214 209 189 189 174 185 185 180 178 175 172 170 151 154 154 150 147 147 143 137 136 136
11 9 3 356 351 343 332 314 295 286 277 271 261 271 278 276 271 264 268 263 252 245 246 249 237 231 226 225 225 224 194 184 224 282 273 220 224 218 222 217 212 214 215 215 212 207 203 201 200 197 193 187 185 179 175 179 183 180 180 194 199 195 209 220 221 198 195 184 183 187 183 179 174 174 167 164 162 158 154 156 152 146 140 140 139
11 9 8 4 358 353 339 318 315 308 303 292 286 279 273 271 268 269 272 272 267 258 257 255 238 250 211 227 231 232 223 225 227 216 244 259 232 224 231 218 214 213 212 214 210 208 205 203 201 201 193 192 183 183 178 179 187 186 187 192 199 199 212 212 205 199 201 199 188 189 187 181 178 174 171 170 167 164 159 159 156 152 144 143 146
14 9 5 0 356 346 340 339 337 333 326 316 301 285 274 273 273 270 273 273 260 263 267 269 266 256 248 213 223 230 225 207 216 219 236 241 240 203 216 211 215 214 212 212 209 206 207 206 201 198 195 189 187 182 182 182 184 189 192 189 197 201 209 205 196 189 198 220 199 193 189 182 181 176 172 170 170 173 168 163 162 160 157 152 152
4 4 358 357 345 344 342 343 346 337 330 314 301 293 287 281 275 269 265 261 257 259 261 269 272 276 270 271 239 220 226 207 209 215 226 226 245 225 208 198 212 219 207 208 209 204 201 202 201 196 197 197 188 186 185 187 184 186 192 189 196 201 206 202 186 192 198 216 213 197 197 186 183 177 171 170 170 172 170 169 170 169 165 160 155
355 351 357 346 344 346 347 345 330 315 296 293 289 285 286 283 277 272 270 267 260 260 258 261 267 273 273 276 276 255 225 216 210 204 205 208 220 239 221 202 213 220 208 209 207 208 202 196 198 199 195 194 192 188 188 188 190 194 193 191 194 202 203 199 186 193 198 211 217 208 200 190 184 181 169 170 170 172 172 168 171 172 168 165 161
351 353 354 346 348 344 341 325 313 304 304 297 294 292 290 288 287 283 282 277 277 274 266 258 264 268 269 267 273 279 282 267 276 221 218 225 214 233 220 206 228 234 196 195 210 211 205 200 200 199 197 195 195 191 181 185 195 195 194 194 194 200 204 196 190 192 197 205 211 212 208 199 189 183 172 171 171 175 174 174 173 171 169 167 164
350 350 345 349 341 335 336 330 326 318 315 312 309 303 296 290 290 291 286 280 274 270 263 265 267 268 276 266 261 264 267 253 224 234 239 235 220 236 230 200 216 222 204 179 208 209 202 203 199 200 192 190 199 189 191 192 191 194 195 196 195 198 202 196 192 192 196 200 204 210 206 216 186 190 178 173 174 176 178 175 172 164 165 173 167
346 343 341 341 340 334 328 328 319 317 320 319 319 317 309 303 296 295 295 291 283 274 270 266 260 258 254 255 251 248 252 248 240 231 228 225 231 230 232 214 210 220 171 197 201 190 210 206 199 198 193 195 197 191 187 195 191 195 195 194 197 197 197 195 193 192 194 199 201 203 187 201 191 200 189 176 172 174 175 170 158 156 168 179 170
355 340 341 342 340 335 333 327 328 330 329 329 327 325 319 309 303 295 291 282 280 261 260 265 266 261 253 248 253 248 241 236 229 230 226 227 229 225 220 221 205 203 206 197 198 203 203 199 190 194 195 195 193 193 193 190 196 192 193 196 193 199 195 194 192 193 192 195 202 196 191 182 175 197 197 178 168 171 171 160 155 158 171 180 180
346 352 353 347 344 339 341 343 341 340 337 333 332 338 338 333 326 326 324 320 315 306 295 291 290 279 270 260 252 249 243 238 230 228 228 228 226 221 213 216 210 213 211 209 206 224 197 188 201 199 194 193 195 195 196 193 197 194 193 197 191 195 198 192 193 193 193 195 199 198 185 174 182 187 187 181 169 170 167 163 161 164 173 179 188
359 1 354 347 346 342 342 343 344 341 340 339 339 341 339 336 336 336 337 328 323 317 307 306 303 296 293 275 261 258 252 244 238 233 233 226 227 225 208 214 210 215 220 217 214 217 200 193 193 204 196 193 194 195 193 195 193 192 196 199 196 189 197 194 193 193 193 194 197 196 188 185 188 182 186 180 175 170 169 165 165 167 175 183 192
1 356 351 346 346 348 345 347 345 345 345 343 345 342 339 337 337 335 334 327 325 320 316 316 317 310 304 304 286 268 263 256 247 233 239 231 225 224 213 214 208 217 219 221 228 204 204 200 198 189 193 195 194 194 197 198 192 188 193 197 200 198 192 192 192 193 193 192 193 192 190 190 185 180 178 179 177 173 169 166 167 171 177 186 192
0 359 350 354 355 351 353 350 353 352 348 346 345 347 340 342 342 336 339 338 335 324 324 322 322 318 324 320 309 296 281 269 259 245 239 235 229 221 219 215 210 215 221 224 240 230 180 192 209 194 184 196 192 194 195 196 196 191 187 190 199 199 191 192 191 193 191 191 189 188 187 187 184 180 184 182 176 175 171 171 167 173 181 186 189
8 356 3 4 360 355 355 357 357 354 352 347 351 346 343 346 341 339 343 349 345 340 337 338 340 335 338 339 334 321 308 297 285 258 242 236 238 234 224 215 210 208 211 221 227 239 222 216 190 199 194 189 189 192 195 197 193 187 193 195 200 194 189 189 194 190 189 186 186 188 192 186 184 180 186 171 173 172 176 173 171 176 182 187 173
1 4 11 6 0 354 357 358 356 355 349 349 344 342 342 340 340 341 343 352 357 354 343 346 348 349 346 345 346 340 332 323 314 305 274 247 235 230 222 215 215 207 208 212 229 244 261 249 176 204 190 172 189 196 200 197 190 189 193 190 193 191 198 194 181 190 186 185 186 188 189 185 182 185 175 174 177 175 179 176 179 177 181 182 169
6 12 14 10 358 358 358 360 2 359 357 348 347 344 355 346 359 3 7 7 11 8 4 4 359 351 347 348 350 342 340 336 337 331 335 333 313 278 231 209 203 196 195 205 223 225 218 354 137 133 168 187 201 193 196 195 197 183 184 188 187 188 194 197 187 187 189 182 184 186 186 184 182 185 175 180 180 176 179 177 178 180 183 173 172
4 6 6 8 7 8 9 7 7 4 0 353 340 350 357 1 7 15 17 20 21 20 18 13 9 2 6 359 352 341 341 343 346 338 335 322 308 293 262 224 214 201 183 204 208 220 232 230 154 172 185 189 202 195 198 201 195 183 184 187 189 189 197 194 193 181 182 181 180 182 183 182 182 181 175 180 182 178 177 177 180 180 177 170 174
6 6 9 9 13 10 13 10 13 6 4 358 1 5 2 10 14 14 15 20 22 21 19 15 12 11 10 6 356 346 343 344 342 338 329 310 307 308 275 228 225 191 185 184 205 209 197 227 204 191 194 194 219 214 206 202 191 182 190 185 175 192 194 181 190 182 180 179 177 179 181 181 183 179 174 179 182 177 176 178 177 180 174 170 174
7 9 18 18 20 17 16 13 13 9 7 4 9 3 9 13 15 14 15 16 18 18 16 14 15 12 11 10 3 0 356 352 348 345 343 334 332 337 331 334 242 204 203 199 201 190 197 212 215 190 174 206 210 215 202 191 176 170 180 166 164 175 179 166 177 186 166 177 176 179 182 182 184 181 175 176 179 177 178 178 178 181 176 172 175
7 12 24 23 26 25 19 17 18 15 11 8 12 12 15 16 18 20 20 19 19 18 15 10 6 7 8 11 12 12 12 6 350 347 342 340 336 338 335 317 237 200 247 212 182 213 214 232 222 221 195 202 216 205 189 188 163 153 155 146 154 166 158 160 178 155 155 170 161 186 186 184 185 183 178 176 176 179 180 180 181 181 178 175 176
28 27 21 26 25 25 22 21 25 22 21 17 16 16 21 21 26 28 26 23 21 15 12 9 2 4 8 10 14 13 18 16 9 1 348 353 339 337 350 342 268 221 211 211 210 226 233 223 204 208 204 212 201 208 182 180 171 175 170 138 157 165 172 175 175 155 143 163 185 186 180 183 185 185 181 177 178 179 180 182 184 180 179 177 177
28 22 21 25 22 26 20 23 19 21 22 27 21 13 18 21 26 34 30 30 26 23 18 15 10 7 12 11 14 12 13 18 15 9 4 353 350 3 357 335 326 318 296 276 191 189 264 247 213 208 204 197 203 14 105 145 129 183 178 171 169 170 177 181 188 162 160 159 161 177 191 189 187 189 184 180 180 179 180 183 185 182 179 179 177
27 25 34 35 32 30 24 22 22 24 25 21 19 15 7 19 23 28 20 25 29 27 22 20 16 15 14 12 13 13 13 16 23 30 28 23 19 21 2 352 350 331 11 45 307 245 257 255 252 222 203 210 206 177 180 182 192 199 160 165 185 178 167 168 176 169 162 164 163 162 171 178 176 186 178 185 187 181 180 180 187 185 182 174 177
35 36 37 38 39 35 29 29 29 31 27 20 13 14 19 20 27 31 34 26 25 25 25 25 27 26 15 12 11 14 10 10 12 23 31 33 37 42 24 14 1 7 348 326 239 210 246 256 250 230 213 220 212 206 200 182 165 97 154 177 178 172 157 158 134 162 166 161 151 175 180 168 174 181 175 188 184 177 176 180 179 179 178 179 178
43 37 38 42 37 31 34 33 33 32 29 17 10 15 15 16 23 34 26 27 24 26 25 23 24 22 19 18 16 10 12 10 9 8 30 33 37 41 44 44 44 40 21 14 0 335 283 263 282 236 226 227 231 222 224 191 188 177 182 184 175 161 166 162 172 129 181 160 163 165 173 173 171 176 184 180 167 170 166 182 176 176 176 176 176
41 43 44 43 42 39 39 40 39 32 27 11 16 18 21 22 25 30 29 29 28 26 23 21 17 13 13 17 17 10 11 11 5 4 14 24 29 35 40 45 44 44 50 50 23 14 3 358 0 2 353 330 325 317 283 267 223 204 193 181 176 173 176 183 172 176 163 162 149 154 154 148 170 158 140 132 156 157 173 172 170 178 173 173 172
44 47 44 43 42 39 41 42 39 32 29 13 18 20 23 26 26 35 36 33 35 31 29 26 24 21 16 15 16 18 9 13 10 8 10 15 23 29 33 38 44 42 37 38 40 33 9 24 19 25 13 344 346 343 320 272 328 244 203 202 183 186 191 181 163 129 155 156 139 142 148 161 149 129 124 100 103 126 127 159 167 167 168 166 165
47 49 43 46 42 39 38 41 42 35 30 10 20 20 22 25 27 36 40 39 38 35 33 29 26 24 20 22 22 17 9 12 8 4 10 14 21 27 29 31 32 32 35 36 35 33 37 37 37 35 10 17 12 351 345 330 272 228 205 219 196 178 183 189 152 141 140 156 157 126 105 146 126 118 118 85 74 86 114 150 158 158 160 163 163
48 46 41 44 42 40 37 37 46 40 27 18 22 22 21 24 26 38 39 42 40 38 35 32 30 27 21 17 24 28 25 24 12 7 18 22 25 28 28 30 31 29 30 28 23 23 31 32 37 37 26 24 28 25 16 6 345 317 265 242 211 199 167 114 100 124 141 155 138 138 152 137 116 98 81 86 72 71 72 132 151 154 158 161 161
53 53 47 47 42 42 38 38 44 40 29 22 23 23 22 20 30 37 36 39 41 37 34 30 32 29 26 22 17 21 18 17 6 13 18 24 35 31 30 27 28 29 30 20 24 31 36 33 36 36 31 26 32 31 28 27 16 352 328 7 82 112 136 130 118 136 143 147 146 137 109 133 67 106 81 66 74 71 58 67 130 140 143 146 147
56 49 49 45 38 42 39 37 39 38 32 21 23 24 23 20 32 35 35 35 35 36 34 25 25 26 28 25 21 19 19 18 8 15 17 28 34 29 27 26 26 31 25 11 15 23 24 30 34 33 31 25 27 28 27 28 28 22 11 359 327 232 149 143 113 139 140 122 104 115 106 116 89 96 92 54 60 52 48 58 87 121 131 133 133
57 49 48 54 44 39 40 39 35 38 31 22 24 26 26 24 32 33 32 38 39 35 32 27 23 23 25 28 30 23 22 17 17 21 16 25 38 33 27 22 32 29 20 12 14 20 23 29 29 28 29 25 23 29 30 28 28 29 42 19 337 308 199 139 151 137 120 134 125 131 110 129 120 116 104 114 69 41 32 44 73 91 99 109 117
64 58 52 57 52 43 39 38 35 39 33 24 24 27 30 26 31 32 33 37 43 32 26 28 25 24 20 21 25 26 27 23 25 26 24 25 32 24 17 30 35 32 18 10 15 16 19 24 23 22 24 21 23 28 30 30 30 31 30 23 14 19 337 108 107 99 87 14 179 154 118 144 142 169 140 118 66 44 41 36 49 76 93 102 105